Check out our new BloomSky Weather System.

Active alerts


No alerts


Thunder radar  blitzortung!


Rain radar more information rain snow radar


Visit our other weather sites:

Template documentation
and downloads

And another site



Weather Underground History page Text

Daily Summary for May 22, 2017 Units:  Metric    English   Both
« Previous Day
Next Day »
Daily Weekly Monthly Yearly Custom
  High: Low: Average:
Temperature: -17.8 °C 19.2 °C 21.6 °C
Dew Point: -17.8 °C 18.6 °C 20.7 °C
Humidity: Humidity % 85 % 94 %
Wind Speed: 0 km/h 0 km/h 4 km/h
Wind Gust: 0 km/h - -
Wind:- - WSW
Pressure: 0 hPa 1010.4 hPa -
Precipitation: 23.37 mm    
Historical Graphs
 
 
Tabular Data for May 22, 2017
Time Temperature Dew Point Pressure Wind Wind Speed Wind Gust Humidity Rainfall Rate (Hourly)
-17.8 °C -17.8 °C 0 hPa Calm     Humidity % 0 mm
00:04 22.6 °C 21.4 °C 1016.8 hPa Calm   3.2 km/h 93 % 0 mm
00:09 22.6 °C 21.4 °C 1016.8 hPa Calm   4.8 km/h 93 % 0 mm
00:14 22.7 °C 21.5 °C 1016.8 hPa Calm   4.8 km/h 93 % 0 mm
00:19 22.7 °C 21.7 °C 1016.8 hPa Calm   4.8 km/h 94 % 0 mm
00:24 22.7 °C 21.7 °C 1016.8 hPa NNW 3.2 km/h 6.4 km/h 94 % 0 mm
00:29 22.7 °C 21.7 °C 1016.8 hPa Calm   6.4 km/h 94 % 0 mm
00:34 22.6 °C 21.6 °C 1016.5 hPa North 3.2 km/h 6.4 km/h 94 % 0 mm
00:39 22.6 °C 21.6 °C 1016.5 hPa NNW 4.8 km/h 8 km/h 94 % 0 mm
00:44 22.6 °C 21.6 °C 1016.5 hPa NNW 1.6 km/h 8 km/h 94 % 0 mm
00:49 22.6 °C 21.6 °C 1016.5 hPa Calm   8 km/h 94 % 0 mm
00:54 22.6 °C 21.6 °C 1016.5 hPa North 1.6 km/h 6.4 km/h 94 % 0 mm
00:59 22.6 °C 21.6 °C 1016.5 hPa East 3.2 km/h 6.4 km/h 94 % 0 mm
01:04 22.6 °C 21.6 °C 1016.1 hPa North 1.6 km/h 6.4 km/h 94 % 0 mm
01:09 22.5 °C 21.5 °C 1016.1 hPa NNW 1.6 km/h 8 km/h 94 % 0 mm
01:14 22.5 °C 21.5 °C 1015.8 hPa Calm   8 km/h 94 % 0 mm
01:19 22.4 °C 21.4 °C 1015.8 hPa NW 3.2 km/h 8 km/h 94 % 0 mm
01:20 22.5 °C 21.5 °C 1015.8 hPa NW 1.6 km/h 8 km/h 94 % 0 mm
01:30 22.4 °C 21.4 °C 1015.8 hPa Calm   11.3 km/h 94 % 0 mm
01:35 22.4 °C 21.4 °C 1015.8 hPa North 1.6 km/h 11.3 km/h 94 % 0 mm
01:36 22.4 °C 21.4 °C 1015.8 hPa NNW 4.8 km/h 11.3 km/h 94 % 0 mm
01:41 22.4 °C 21.4 °C 1015.8 hPa NW 1.6 km/h 9.7 km/h 94 % 0 mm
01:46 22.4 °C 21.4 °C 1016.1 hPa Calm   9.7 km/h 94 % 0 mm
01:51 22.4 °C 21.4 °C 1015.8 hPa Calm   8 km/h 94 % 0 mm
01:57 22.4 °C 21.4 °C 1015.8 hPa NNW 1.6 km/h 8 km/h 94 % 0 mm
02:02 22.4 °C 21.4 °C 1016.1 hPa SSE 1.6 km/h 12.9 km/h 94 % 0 mm
02:07 22.4 °C 21.4 °C 1016.1 hPa East 3.2 km/h 12.9 km/h 94 % 0 mm
02:12 22.4 °C 21.4 °C 1016.1 hPa NNW 3.2 km/h 12.9 km/h 94 % 0 mm
02:17 22.4 °C 21.4 °C 1016.1 hPa North 3.2 km/h 8 km/h 94 % 0 mm
02:22 22.4 °C 21.4 °C 1016.1 hPa Calm   9.7 km/h 94 % 0 mm
02:24 22.4 °C 21.4 °C 1016.1 hPa Calm   9.7 km/h 94 % 0 mm
02:29 22.3 °C 21.3 °C 1016.1 hPa ENE 6.4 km/h 9.7 km/h 94 % 0 mm
02:34 22.3 °C 21.3 °C 1015.8 hPa ENE 1.6 km/h 11.3 km/h 94 % 0 mm
02:39 22.3 °C 21.3 °C 1016.1 hPa NNW 1.6 km/h 11.3 km/h 94 % 0 mm
02:44 22.3 °C 21.3 °C 1015.8 hPa ENE 1.6 km/h 11.3 km/h 94 % 0 mm
02:49 22.3 °C 21.3 °C 1015.8 hPa North 3.2 km/h 9.7 km/h 94 % 0 mm
02:54 22.3 °C 21.3 °C 1015.8 hPa NNW 8 km/h 9.7 km/h 94 % 0 mm
02:59 22.3 °C 21.3 °C 1015.5 hPa North 4.8 km/h 11.3 km/h 94 % 0 mm
03:04 22.3 °C 21.3 °C 1015.5 hPa East 3.2 km/h 11.3 km/h 94 % 0 mm
03:09 22.3 °C 21.3 °C 1015.5 hPa East 4.8 km/h 11.3 km/h 94 % 0 mm
03:14 22.3 °C 21.3 °C 1015.5 hPa Calm   11.3 km/h 94 % 0 mm
03:19 22.3 °C 21.3 °C 1015.5 hPa East 3.2 km/h 11.3 km/h 94 % 0 mm
03:24 22.3 °C 21.3 °C 1015.1 hPa ESE 1.6 km/h 11.3 km/h 94 % 0 mm
03:29 22.3 °C 21.3 °C 1015.1 hPa North 3.2 km/h 12.9 km/h 94 % 0 mm
03:34 22.3 °C 21.3 °C 1014.8 hPa ENE 1.6 km/h 12.9 km/h 94 % 0 mm
03:39 22.3 °C 21.3 °C 1014.8 hPa East 1.6 km/h 12.9 km/h 94 % 0 mm
03:44 22.3 °C 21.3 °C 1014.8 hPa SE 1.6 km/h 9.7 km/h 94 % 0 mm
03:49 22.2 °C 21.2 °C 1014.8 hPa WNW 3.2 km/h 14.5 km/h 94 % 0 mm
03:54 22.2 °C 21.2 °C 1014.8 hPa Calm   14.5 km/h 94 % 0 mm
03:59 22.2 °C 21.2 °C 1014.4 hPa NNE 1.6 km/h 14.5 km/h 94 % 0.25 mm
04:04 22.2 °C 21.2 °C 1014.4 hPa NNW 1.6 km/h 9.7 km/h 94 % 0.25 mm
04:09 22.1 °C 21.3 °C 1014.8 hPa WSW 1.6 km/h 8 km/h 95 % 0.25 mm
04:14 22.1 °C 21.3 °C 1014.4 hPa East 1.6 km/h 8 km/h 95 % 0.25 mm
04:19 22.1 °C 21.3 °C 1014.8 hPa Calm   11.3 km/h 95 % 0.25 mm
04:24 22.1 °C 21.3 °C 1014.8 hPa NE 3.2 km/h 11.3 km/h 95 % 0.25 mm
04:29 22.1 °C 21.3 °C 1014.4 hPa ENE 4.8 km/h 11.3 km/h 95 % 0.25 mm
04:34 22.1 °C 21.3 °C 1014.4 hPa Calm   6.4 km/h 95 % 0.25 mm
04:35 22.1 °C 21.3 °C 1014.4 hPa ESE 1.6 km/h 6.4 km/h 95 % 0.51 mm
04:40 22.1 °C 21.4 °C 1014.4 hPa Calm   6.4 km/h 96 % 1.02 mm
04:45 22.1 °C 21.4 °C 1014.4 hPa NNW 1.6 km/h 8 km/h 96 % 1.27 mm
04:50 22 °C 21.3 °C 1014.4 hPa Calm   11.3 km/h 96 % 1.27 mm
04:55 22 °C 21.3 °C 1014.4 hPa Calm   11.3 km/h 96 % 1.27 mm
05:00 22 °C 21.3 °C 1014.4 hPa ENE 4.8 km/h 11.3 km/h 96 % 1.27 mm
05:05 22 °C 21.3 °C 1014.4 hPa NNE 1.6 km/h 8 km/h 96 % 1.27 mm
05:10 22 °C 21.3 °C 1013.8 hPa NE 1.6 km/h 8 km/h 96 % 1.27 mm
05:15 21.9 °C 21.2 °C 1014.1 hPa North 1.6 km/h 8 km/h 96 % 1.27 mm
05:20 21.9 °C 21.2 °C 1013.8 hPa NW 1.6 km/h 8 km/h 96 % 1.27 mm
05:25 21.9 °C 21.4 °C 1013.8 hPa SE 1.6 km/h 8 km/h 97 % 1.27 mm
05:30 22 °C 21.5 °C 1013.8 hPa Calm   8 km/h 97 % 1.27 mm
05:35 22 °C 21.5 °C 1013.8 hPa SE 1.6 km/h 8 km/h 97 % 1.02 mm
05:40 22 °C 21.5 °C 1013.8 hPa North 1.6 km/h 8 km/h 97 % 0.51 mm
05:45 22 °C 21.5 °C 1013.8 hPa East 3.2 km/h 8 km/h 97 % 0.25 mm
05:46 22 °C 21.5 °C 1013.8 hPa ENE 6.4 km/h 8 km/h 97 % 0.25 mm
05:51 22 °C 21.5 °C 1013.8 hPa East 3.2 km/h 8 km/h 97 % 0.25 mm
05:56 22 °C 21.5 °C 1013.8 hPa Calm   8 km/h 97 % 0 mm
06:01 22 °C 21.5 °C 1013.4 hPa NNE 3.2 km/h 8 km/h 97 % 0 mm
06:06 22 °C 21.5 °C 1013.8 hPa Calm   8 km/h 97 % 0 mm
06:11 21.9 °C 21.4 °C 1013.8 hPa NNE 1.6 km/h 8 km/h 97 % 0 mm
06:16 22.1 °C 21.6 °C 1013.8 hPa Calm   8 km/h 97 % 0 mm
06:21 22.1 °C 21.6 °C 1014.1 hPa North 1.6 km/h 4.8 km/h 97 % 0 mm
06:26 22.1 °C 21.6 °C 1014.1 hPa Calm   4.8 km/h 97 % 0 mm
06:31 22.2 °C 21.7 °C 1014.1 hPa Calm   3.2 km/h 97 % 0 mm
06:36 22.2 °C 21.7 °C 1014.1 hPa Calm   3.2 km/h 97 % 0 mm
06:41 22.2 °C 21.7 °C 1014.4 hPa Calm   3.2 km/h 97 % 0 mm
06:46 22.2 °C 21.7 °C 1014.4 hPa Calm   3.2 km/h 97 % 0 mm
06:51 22.2 °C 21.7 °C 1014.1 hPa Calm   3.2 km/h 97 % 0 mm
06:57 22.2 °C 21.7 °C 1014.1 hPa Calm   3.2 km/h 97 % 0 mm
07:01 22.3 °C 21.8 °C 1014.1 hPa Calm   3.2 km/h 97 % 0 mm
07:07 22.3 °C 21.8 °C 1013.8 hPa Calm   3.2 km/h 97 % 0 mm
07:12 22.3 °C 21.8 °C 1013.8 hPa NE 1.6 km/h 3.2 km/h 97 % 0 mm
07:17 22.3 °C 21.8 °C 1013.8 hPa ENE 3.2 km/h 4.8 km/h 97 % 0 mm
07:22 22.4 °C 22.1 °C 1013.8 hPa SE 3.2 km/h 6.4 km/h 98 % 0 mm
07:27 22.4 °C 22.1 °C 1014.1 hPa SE 1.6 km/h 6.4 km/h 98 % 0 mm
07:32 22.6 °C 22.3 °C 1014.4 hPa SE 6.4 km/h 11.3 km/h 98 % 0 mm
07:34 22.6 °C 22.3 °C 1014.4 hPa SE 6.4 km/h 11.3 km/h 98 % 0 mm
07:39 22.6 °C 22.3 °C 1014.4 hPa WSW 6.4 km/h 11.3 km/h 98 % 0 mm
07:44 22.6 °C 22.1 °C 1014.1 hPa ESE 8 km/h 17.7 km/h 97 % 0 mm
07:49 22.6 °C 22.1 °C 1014.1 hPa SE 4.8 km/h 17.7 km/h 97 % 0 mm
07:54 22.6 °C 22.1 °C 1013.8 hPa SE 4.8 km/h 17.7 km/h 97 % 0 mm
07:59 22.6 °C 22.1 °C 1013.8 hPa SE 9.7 km/h 17.7 km/h 97 % 0 mm
08:04 22.6 °C 22.1 °C 1013.8 hPa ESE 11.3 km/h 17.7 km/h 97 % 0 mm
08:09 22.5 °C 22 °C 1013.8 hPa ESE 9.7 km/h 17.7 km/h 97 % 0 mm
08:14 22.4 °C 21.9 °C 1014.1 hPa SE 8 km/h 17.7 km/h 97 % 0 mm
08:19 22.5 °C 22 °C 1014.1 hPa ESE 8 km/h 17.7 km/h 97 % 0 mm
08:24 22.5 °C 22 °C 1013.8 hPa South 8 km/h 17.7 km/h 97 % 0 mm
08:29 22.6 °C 21.9 °C 1013.8 hPa SSW 8 km/h 17.7 km/h 96 % 0 mm
08:34 22.5 °C 21.8 °C 1013.8 hPa ENE 12.9 km/h 17.7 km/h 96 % 0 mm
08:39 22.5 °C 21.8 °C 1013.8 hPa South 6.4 km/h 17.7 km/h 96 % 0.25 mm
08:44 22.5 °C 21.8 °C 1013.4 hPa East 14.5 km/h 17.7 km/h 96 % 0.25 mm
08:49 22.5 °C 21.8 °C 1013.4 hPa SE 9.7 km/h 19.3 km/h 96 % 0.25 mm
08:54 22.5 °C 21.8 °C 1013.4 hPa SE 8 km/h 19.3 km/h 96 % 0.25 mm
08:55 22.5 °C 21.8 °C 1013.4 hPa SSE 6.4 km/h 19.3 km/h 96 % 0.25 mm
09:00 22.5 °C 21.8 °C 1013.8 hPa SE 8 km/h 17.7 km/h 96 % 0.51 mm
09:05 22.6 °C 21.9 °C 1013.8 hPa SE 3.2 km/h 17.7 km/h 96 % 0.51 mm
09:10 22.7 °C 22 °C 1013.8 hPa SE 4.8 km/h 12.9 km/h 96 % 0.51 mm
09:15 22.8 °C 22.3 °C 1013.8 hPa South 8 km/h 11.3 km/h 97 % 0.51 mm
09:20 22.9 °C 22.4 °C 1013.8 hPa SSE 8 km/h 14.5 km/h 97 % 0.51 mm
09:25 22.9 °C 22.2 °C 1013.4 hPa ESE 6.4 km/h 17.7 km/h 96 % 0.51 mm
09:30 23.1 °C 22.4 °C 1013.4 hPa SE 8 km/h 17.7 km/h 96 % 0.51 mm
09:35 23.1 °C 22.4 °C 1013.8 hPa SSE 14.5 km/h 17.7 km/h 96 % 0.25 mm
09:41 23.2 °C 22.5 °C 1013.8 hPa SSW 8 km/h 16.1 km/h 96 % 0.25 mm
09:46 23.3 °C 22.6 °C 1013.4 hPa SE 3.2 km/h 16.1 km/h 96 % 0.25 mm
09:50 23.4 °C 22.7 °C 1013.4 hPa SE 8 km/h 16.1 km/h 96 % 0.25 mm
09:56 23.4 °C 22.7 °C 1013.8 hPa SE 12.9 km/h 12.9 km/h 96 % 0.25 mm
10:01 23.6 °C 22.9 °C 1013.4 hPa ESE 6.4 km/h 14.5 km/h 96 % 0 mm
10:06 23.7 °C 22.9 °C 1013.4 hPa SE 3.2 km/h 16.1 km/h 95 % 0 mm
10:11 23.8 °C 22.9 °C 1013.8 hPa SE 4.8 km/h 16.1 km/h 95 % 0 mm
10:16 23.8 °C 22.9 °C 1013.8 hPa SSW 8 km/h 16.1 km/h 95 % 0 mm
10:21 23.9 °C 23 °C 1013.8 hPa South 3.2 km/h 14.5 km/h 95 % 0 mm
10:26 24.2 °C 23.3 °C 1013.8 hPa Calm   11.3 km/h 95 % 0 mm
10:31 24.3 °C 23.3 °C 1013.8 hPa SSW 6.4 km/h 12.9 km/h 94 % 0 mm
10:36 24.4 °C 23.4 °C 1013.8 hPa SE 8 km/h 12.9 km/h 94 % 0 mm
10:41 24.4 °C 23.4 °C 1013.8 hPa SE 8 km/h 12.9 km/h 94 % 0 mm
10:46 24.5 °C 23.3 °C 1013.8 hPa SE 4.8 km/h 20.9 km/h 93 % 0 mm
10:51 24.6 °C 23.4 °C 1013.8 hPa SSE 4.8 km/h 20.9 km/h 93 % 0 mm
10:56 24.7 °C 23.5 °C 1013.8 hPa SSE 12.9 km/h 20.9 km/h 93 % 0 mm
11:01 24.9 °C 23.3 °C 1013.8 hPa South 8 km/h 17.7 km/h 91 % 0 mm
11:06 25.2 °C 23.4 °C 1013.4 hPa SSE 11.3 km/h 17.7 km/h 90 % 0 mm
11:11 25.3 °C 23.2 °C 1013.4 hPa SSW 9.7 km/h 22.5 km/h 88 % 0 mm
11:14 25.3 °C 23.4 °C 1013.4 hPa SE 8 km/h 22.5 km/h 89 % 0 mm
11:19 25.3 °C 23.2 °C 1013.4 hPa SW 12.9 km/h 22.5 km/h 88 % 0 mm
11:24 25.3 °C 23.4 °C 1013.4 hPa South 8 km/h 24.1 km/h 89 % 0 mm
11:29 25.2 °C 23.1 °C 1013.4 hPa SE 9.7 km/h 24.1 km/h 88 % 0 mm
11:34 25.2 °C 23.1 °C 1013.4 hPa South 6.4 km/h 24.1 km/h 88 % 0 mm
11:39 25.1 °C 23 °C 1013.4 hPa SW 12.9 km/h 20.9 km/h 88 % 0 mm
11:44 24.1 °C 21.4 °C 1014.1 hPa NW 11.3 km/h 17.7 km/h 85 % 0 mm
11:49 22.2 °C 20.1 °C 1014.1 hPa WNW 8 km/h 19.3 km/h 88 % 0.76 mm
11:54 21.1 °C 19.7 °C 1014.4 hPa NW 11.3 km/h 20.9 km/h 92 % 3.81 mm
11:59 20.5 °C 19.3 °C 1014.4 hPa NW 12.9 km/h 20.9 km/h 93 % 4.57 mm
12:04 20.1 °C 19.3 °C 1014.4 hPa WNW 9.7 km/h 20.9 km/h 95 % 6.35 mm
12:09 19.7 °C 19 °C 1014.1 hPa NNW 9.7 km/h 19.3 km/h 96 % 7.87 mm
12:14 19.5 °C 18.8 °C 1014.1 hPa NW 9.7 km/h 19.3 km/h 96 % 8.89 mm
12:19 19.6 °C 19.1 °C 1013.8 hPa North 8 km/h 19.3 km/h 97 % 8.89 mm
12:24 19.6 °C 19.1 °C 1014.1 hPa WNW 3.2 km/h 19.3 km/h 97 % 8.89 mm
12:29 19.5 °C 19 °C 1014.1 hPa Calm   19.3 km/h 97 % 8.89 mm
12:34 19.5 °C 19 °C 1014.1 hPa NNW 3.2 km/h 19.3 km/h 97 % 8.89 mm
12:39 19.4 °C 18.9 °C 1014.1 hPa WNW 1.6 km/h 17.7 km/h 97 % 9.14 mm
12:44 19.4 °C 18.9 °C 1014.1 hPa NW 3.2 km/h 14.5 km/h 97 % 9.4 mm
12:49 19.4 °C 18.9 °C 1014.4 hPa NW 3.2 km/h 12.9 km/h 97 % 8.64 mm
12:54 19.3 °C 18.8 °C 1014.4 hPa NW 3.2 km/h 12.9 km/h 97 % 6.1 mm
12:59 19.4 °C 19.1 °C 1014.4 hPa NW 6.4 km/h 11.3 km/h 98 % 5.33 mm
13:04 19.4 °C 19.1 °C 1014.4 hPa NW 1.6 km/h 11.3 km/h 98 % 3.81 mm
13:09 19.3 °C 19 °C 1014.4 hPa Calm   11.3 km/h 98 % 2.54 mm
13:14 19.3 °C 19 °C 1014.4 hPa Calm   11.3 km/h 98 % 3.56 mm
13:19 19.3 °C 19 °C 1014.1 hPa North 3.2 km/h 9.7 km/h 98 % 4.32 mm
13:24 19.3 °C 19 °C 1014.1 hPa NNW 1.6 km/h 6.4 km/h 98 % 5.33 mm
13:29 19.2 °C 18.9 °C 1013.8 hPa NNW 1.6 km/h 6.4 km/h 98 % 6.6 mm
13:30 19.2 °C 18.9 °C 1013.8 hPa Calm   6.4 km/h 98 % 7.11 mm
13:31 19.3 °C 19 °C 1013.8 hPa NW 1.6 km/h 6.4 km/h 98 % 7.11 mm
13:36 19.3 °C 19 °C 1013.8 hPa NE 4.8 km/h 6.4 km/h 98 % 7.37 mm
13:41 19.3 °C 19 °C 1013.8 hPa NNW 4.8 km/h 8 km/h 98 % 7.62 mm
13:46 19.3 °C 19 °C 1013.8 hPa NW 1.6 km/h 8 km/h 98 % 7.62 mm
13:51 19.4 °C 19.1 °C 1013.4 hPa Calm   8 km/h 98 % 9.14 mm
13:56 19.4 °C 19.1 °C 1013.4 hPa ENE 3.2 km/h 6.4 km/h 98 % 10.16 mm
14:01 19.6 °C 19.3 °C 1013.4 hPa ENE 4.8 km/h 6.4 km/h 98 % 10.16 mm
14:06 19.7 °C 19.5 °C 1013.1 hPa North 1.6 km/h 6.4 km/h 99 % 9.4 mm
14:11 19.8 °C 19.5 °C 1013.1 hPa Calm   11.3 km/h 98 % 7.87 mm
14:16 19.8 °C 19.5 °C 1013.1 hPa ENE 3.2 km/h 11.3 km/h 98 % 7.11 mm
14:21 19.8 °C 19.5 °C 1013.1 hPa NNW 1.6 km/h 11.3 km/h 98 % 6.1 mm
14:26 19.9 °C 19.6 °C 1013.1 hPa NNW 3.2 km/h 8 km/h 98 % 4.83 mm
14:31 20 °C 19.8 °C 1013.1 hPa Calm   9.7 km/h 99 % 4.57 mm
14:36 20.1 °C 19.9 °C 1012.8 hPa NNW 1.6 km/h 9.7 km/h 99 % 4.32 mm
14:41 20.1 °C 19.8 °C 1012.8 hPa NNW 3.2 km/h 9.7 km/h 98 % 3.81 mm
14:46 20.2 °C 20 °C 1012.8 hPa NW 6.4 km/h 8 km/h 99 % 3.3 mm
14:51 20.2 °C 20 °C 1012.8 hPa NNW 4.8 km/h 8 km/h 99 % 1.52 mm
14:56 20.2 °C 20 °C 1012.8 hPa NW 3.2 km/h 12.9 km/h 99 % 1.02 mm
15:01 20.3 °C 20.1 °C 1012.4 hPa NNW 3.2 km/h 12.9 km/h 99 % 0.76 mm
15:06 20.3 °C 20.1 °C 1012.4 hPa NW 4.8 km/h 12.9 km/h 99 % 0.76 mm
15:11 20.4 °C 20.2 °C 1012.4 hPa NW 3.2 km/h 11.3 km/h 99 % 0.76 mm
15:16 20.6 °C 20.4 °C 1012.4 hPa WNW 3.2 km/h 11.3 km/h 99 % 0.76 mm
15:21 20.6 °C 20.4 °C 1012.1 hPa North 1.6 km/h 11.3 km/h 99 % 0.76 mm
15:26 20.7 °C 20.5 °C 1012.1 hPa NNW 6.4 km/h 12.9 km/h 99 % 0.76 mm
15:31 20.7 °C 20.4 °C 1012.1 hPa NNW 4.8 km/h 12.9 km/h 98 % 0.51 mm
15:36 20.8 °C 20.6 °C 1012.1 hPa WNW 3.2 km/h 12.9 km/h 99 % 0.25 mm
15:41 20.8 °C 20.5 °C 1012.1 hPa NW 8 km/h 12.9 km/h 98 % 0.25 mm
15:46 20.9 °C 20.6 °C 1012.1 hPa NNW 3.2 km/h 12.9 km/h 98 % 0.25 mm
15:47 20.9 °C 20.6 °C 1012.1 hPa NW 3.2 km/h 12.9 km/h 98 % 0.25 mm
15:52 20.9 °C 20.6 °C 1012.1 hPa WNW 3.2 km/h 12.9 km/h 98 % 0.25 mm
15:57 20.8 °C 20.5 °C 1012.1 hPa NW 3.2 km/h 12.9 km/h 98 % 0 mm
16:02 20.9 °C 20.6 °C 1012.1 hPa WNW 6.4 km/h 12.9 km/h 98 % 0 mm
16:07 20.9 °C 20.6 °C 1012.1 hPa WNW 3.2 km/h 12.9 km/h 98 % 0 mm
16:12 20.9 °C 20.4 °C 1012.1 hPa NW 1.6 km/h 12.9 km/h 97 % 0 mm
16:17 20.9 °C 20.4 °C 1011.7 hPa NW 4.8 km/h 12.9 km/h 97 % 0 mm
16:22 20.8 °C 20.3 °C 1011.7 hPa NW 8 km/h 11.3 km/h 97 % 0 mm
16:27 20.9 °C 20.6 °C 1011.7 hPa NNW 6.4 km/h 12.9 km/h 98 % 0 mm
16:32 21 °C 20.7 °C 1011.7 hPa NW 3.2 km/h 12.9 km/h 98 % 0.25 mm
16:37 21.3 °C 21 °C 1011.7 hPa NW 4.8 km/h 12.9 km/h 98 % 0.25 mm
16:42 21.4 °C 21.1 °C 1011.4 hPa NNE 1.6 km/h 8 km/h 98 % 0.25 mm
16:47 21.3 °C 20.8 °C 1011.4 hPa North 3.2 km/h 11.3 km/h 97 % 0.25 mm
16:52 21.4 °C 20.9 °C 1011.4 hPa NW 4.8 km/h 11.3 km/h 97 % 0.25 mm
16:57 21.5 °C 21 °C 1011.4 hPa NW 3.2 km/h 11.3 km/h 97 % 0.25 mm
17:02 21.6 °C 21.1 °C 1011.4 hPa NW 4.8 km/h 9.7 km/h 97 % 0.25 mm
17:07 21.8 °C 21.3 °C 1011.4 hPa NW 1.6 km/h 9.7 km/h 97 % 0.25 mm
17:12 21.8 °C 21.1 °C 1011.1 hPa NNW 1.6 km/h 9.7 km/h 96 % 0.25 mm
17:13 21.8 °C 21.1 °C 1011.1 hPa NW 3.2 km/h 9.7 km/h 96 % 0.25 mm
17:18 22.1 °C 21.4 °C 1011.1 hPa WNW 3.2 km/h 9.7 km/h 96 % 0.25 mm
17:23 22.1 °C 21.4 °C 1011.1 hPa North 3.2 km/h 9.7 km/h 96 % 0.25 mm
17:28 22.2 °C 21.5 °C 1011.1 hPa NW 4.8 km/h 6.4 km/h 96 % 0.25 mm
17:34 22.2 °C 21.2 °C 1011.1 hPa NNW 3.2 km/h 9.7 km/h 94 % 0 mm
17:39 22.3 °C 21.3 °C 1011.1 hPa NW 6.4 km/h 9.7 km/h 94 % 0 mm
17:44 22.3 °C 21.1 °C 1011.1 hPa NNW 8 km/h 12.9 km/h 93 % 0 mm
17:49 22.3 °C 21.1 °C 1011.1 hPa NW 3.2 km/h 12.9 km/h 93 % 0 mm
17:54 22.4 °C 21 °C 1011.1 hPa NW 3.2 km/h 12.9 km/h 92 % 0 mm
17:59 22.5 °C 21.1 °C 1011.1 hPa NW 6.4 km/h 9.7 km/h 92 % 0 mm
18:04 22.5 °C 21.1 °C 1011.1 hPa North 4.8 km/h 9.7 km/h 92 % 0 mm
18:09 22.4 °C 20.9 °C 1011.1 hPa WNW 4.8 km/h 11.3 km/h 91 % 0 mm
18:14 22.4 °C 20.9 °C 1011.1 hPa WNW 1.6 km/h 11.3 km/h 91 % 0 mm
18:19 22.6 °C 21.1 °C 1011.1 hPa NNW 1.6 km/h 11.3 km/h 91 % 0 mm
18:24 22.5 °C 20.8 °C 1011.1 hPa WNW 3.2 km/h 8 km/h 90 % 0 mm
18:29 22.4 °C 20.7 °C 1011.1 hPa NNW 6.4 km/h 9.7 km/h 90 % 0 mm
18:34 22.3 °C 20.6 °C 1010.7 hPa WNW 4.8 km/h 9.7 km/h 90 % 0 mm
18:39 22.3 °C 20.6 °C 1010.7 hPa WNW 3.2 km/h 14.5 km/h 90 % 0 mm
18:44 22.2 °C 20.5 °C 1010.7 hPa NW 3.2 km/h 14.5 km/h 90 % 0 mm
18:49 22.2 °C 20.5 °C 1010.7 hPa NW 4.8 km/h 14.5 km/h 90 % 0 mm
18:54 22.1 °C 20.4 °C 1010.7 hPa NW 6.4 km/h 9.7 km/h 90 % 0 mm
18:59 22.1 °C 20.4 °C 1010.7 hPa WNW 4.8 km/h 12.9 km/h 90 % 0 mm
19:04 22.1 °C 20.4 °C 1010.7 hPa NW 3.2 km/h 12.9 km/h 90 % 0 mm
19:09 22 °C 20.5 °C 1010.4 hPa Calm   12.9 km/h 91 % 0 mm
19:14 22 °C 20.5 °C 1010.4 hPa NNE 3.2 km/h 9.7 km/h 91 % 0 mm
19:19 21.9 °C 20.2 °C 1010.4 hPa NW 3.2 km/h 9.7 km/h 90 % 0 mm
19:24 21.8 °C 20.1 °C 1010.4 hPa NW 4.8 km/h 9.7 km/h 90 % 0 mm
19:29 21.7 °C 20.2 °C 1010.4 hPa North 1.6 km/h 9.7 km/h 91 % 0 mm
19:34 21.7 °C 20.2 °C 1010.4 hPa North 3.2 km/h 9.7 km/h 91 % 0 mm
19:39 21.7 °C 20.2 °C 1010.4 hPa NW 3.2 km/h 9.7 km/h 91 % 0 mm
19:44 21.6 °C 20.1 °C 1010.7 hPa WNW 11.3 km/h 11.3 km/h 91 % 0 mm
19:49 21.5 °C 19.8 °C 1010.7 hPa NNW 3.2 km/h 11.3 km/h 90 % 0 mm
19:54 21.4 °C 19.7 °C 1010.7 hPa NNW 12.9 km/h 12.9 km/h 90 % 0 mm
19:59 21.3 °C 19.8 °C 1010.7 hPa NW 3.2 km/h 12.9 km/h 91 % 0 mm
20:04 21.2 °C 19.7 °C 1010.4 hPa NW 3.2 km/h 12.9 km/h 91 % 0 mm
20:09 21.2 °C 19.7 °C 1010.7 hPa NW 6.4 km/h 12.9 km/h 91 % 0 mm
20:14 21.1 °C 19.6 °C 1010.7 hPa North 6.4 km/h 11.3 km/h 91 % 0 mm
20:19 20.9 °C 19.4 °C 1010.7 hPa WNW 6.4 km/h 11.3 km/h 91 % 0 mm
20:24 20.9 °C 19.4 °C 1010.7 hPa NW 4.8 km/h 11.3 km/h 91 % 0 mm
20:29 20.8 °C 19.3 °C 1010.7 hPa NW 4.8 km/h 11.3 km/h 91 % 0 mm
20:34 20.8 °C 19.3 °C 1011.1 hPa NW 3.2 km/h 14.5 km/h 91 % 0 mm
20:39 20.7 °C 19.2 °C 1011.1 hPa NNW 3.2 km/h 14.5 km/h 91 % 0 mm
20:44 20.8 °C 19.3 °C 1011.1 hPa NW 4.8 km/h 14.5 km/h 91 % 0 mm
20:49 20.7 °C 19.4 °C 1011.1 hPa NW 3.2 km/h 9.7 km/h 92 % 0 mm
20:54 20.7 °C 19.4 °C 1011.1 hPa North 1.6 km/h 11.3 km/h 92 % 0 mm
20:59 20.8 °C 19.5 °C 1011.1 hPa NW 3.2 km/h 11.3 km/h 92 % 0 mm
21:04 20.7 °C 19.4 °C 1011.1 hPa Calm   11.3 km/h 92 % 0 mm
21:09 20.7 °C 19.4 °C 1011.1 hPa WNW 1.6 km/h 6.4 km/h 92 % 0 mm
21:14 20.6 °C 19.3 °C 1011.1 hPa NNW 6.4 km/h 9.7 km/h 92 % 0 mm
21:19 20.5 °C 19.2 °C 1011.1 hPa NW 8 km/h 9.7 km/h 92 % 0 mm
21:24 20.4 °C 19.1 °C 1011.1 hPa NW 9.7 km/h 12.9 km/h 92 % 0 mm
21:29 20.3 °C 19 °C 1011.1 hPa NW 6.4 km/h 14.5 km/h 92 % 0 mm
21:34 20.3 °C 19 °C 1011.1 hPa WNW 6.4 km/h 14.5 km/h 92 % 0 mm
21:36 20.3 °C 19 °C 1011.1 hPa NNE 6.4 km/h 14.5 km/h 92 % 0 mm
21:41 20.2 °C 18.9 °C 1011.1 hPa NW 1.6 km/h 12.9 km/h 92 % 0 mm
21:46 20.3 °C 19 °C 1011.1 hPa NNW 4.8 km/h 12.9 km/h 92 % 0 mm
21:51 20.3 °C 19 °C 1011.4 hPa NNW 3.2 km/h 11.3 km/h 92 % 0 mm
21:56 20.3 °C 19 °C 1011.1 hPa WNW 6.4 km/h 8 km/h 92 % 0 mm
22:01 20.2 °C 18.9 °C 1011.1 hPa North 4.8 km/h 14.5 km/h 92 % 0 mm
22:06 20.2 °C 18.9 °C 1011.1 hPa NW 1.6 km/h 14.5 km/h 92 % 0 mm
22:11 20.2 °C 18.9 °C 1011.1 hPa NW 6.4 km/h 14.5 km/h 92 % 0 mm
22:16 20.2 °C 18.9 °C 1011.4 hPa WNW 8 km/h 12.9 km/h 92 % 0 mm
22:21 20.2 °C 18.9 °C 1011.4 hPa NW 1.6 km/h 12.9 km/h 92 % 0 mm
22:26 20.2 °C 18.9 °C 1011.4 hPa NNW 8 km/h 12.9 km/h 92 % 0 mm
22:31 20.2 °C 18.9 °C 1011.4 hPa NW 1.6 km/h 12.9 km/h 92 % 0 mm
22:36 20.2 °C 18.9 °C 1011.1 hPa NNW 4.8 km/h 11.3 km/h 92 % 0 mm
22:41 20.2 °C 18.9 °C 1011.1 hPa NW 1.6 km/h 11.3 km/h 92 % 0 mm
22:46 20.1 °C 18.9 °C 1011.4 hPa North 4.8 km/h 9.7 km/h 93 % 0 mm
22:51 20.1 °C 18.9 °C 1011.4 hPa NW 4.8 km/h 9.7 km/h 93 % 0 mm
22:56 19.9 °C 18.6 °C 1011.4 hPa NW 3.2 km/h 12.9 km/h 92 % 0 mm
23:01 19.9 °C 18.7 °C 1011.4 hPa NNW 1.6 km/h 12.9 km/h 93 % 0 mm
23:06 19.8 °C 18.6 °C 1011.4 hPa NNE 8 km/h 12.9 km/h 93 % 0 mm
23:11 19.8 °C 18.6 °C 1011.4 hPa NW 4.8 km/h 12.9 km/h 93 % 0 mm
23:16 19.8 °C 18.6 °C 1011.4 hPa NW 8 km/h 12.9 km/h 93 % 0 mm
23:21 19.8 °C 18.6 °C 1011.4 hPa North 4.8 km/h 12.9 km/h 93 % 0 mm
23:26 19.8 °C 18.6 °C 1011.4 hPa NNW 3.2 km/h 9.7 km/h 93 % 0 mm
23:31 19.8 °C 18.6 °C 1011.1 hPa North 1.6 km/h 9.7 km/h 93 % 0 mm
23:36 19.8 °C 18.6 °C 1011.1 hPa NW 1.6 km/h 8 km/h 93 % 0 mm
23:41 19.8 °C 18.6 °C 1011.1 hPa North 3.2 km/h 8 km/h 93 % 0 mm
23:46 19.8 °C 18.6 °C 1011.4 hPa NW 1.6 km/h 11.3 km/h 93 % 0 mm
23:51 19.9 °C 18.6 °C 1011.1 hPa Calm   11.3 km/h 92 % 0 mm
23:56 19.9 °C 18.6 °C 1011.1 hPa Calm   11.3 km/h 92 % 0 mm
Spring, Texas: Villages of Bridgestone
Compliments of Weather Underground - 3.25 mb

Script developed by  Jim McMurry - jmcmurry@mwt.net Adapted for the template by  Wim van der Kuil - Leuven-Template.eu

You find our weather info also at:

UK Metoffice

WeatherCloud

Weather Underground

Mid-South Weather Network

AWEKAS

Citizen Weather Observer Program (CWOP)

HAMweather, WeatherForYou, PWS Weather

Equipment we use:

Weather-station
Davis Vantage Vue

Weather-program
Meteohub

Weather-server
Debian 7.9 x86 (Guest)

Provider
DreamHost

Davis Vantage Vue

Meteohub

Debian 7.9 x86 (Guest)

DreamHost